{"data":{"norad_id":43642,"epoch":"2026-09-20T04:12:59.681664Z","epoch_age_seconds":82846,"freshness":"FRESH","line1":"1 43642U 18077A   26263.17569076  .00000307  00000+0  68739-4 0  9998","line2":"2 43642  98.1436 290.5612 0001086  94.5292 265.6034 14.63269134423737","mean_motion":14.63269134,"eccentricity":0.0001086,"inclination_deg":98.1436,"raan_deg":290.5612,"arg_perigee_deg":94.5292,"mean_anomaly_deg":265.6034,"bstar":6.8739e-5,"rev_number":42373,"period_min":98.409784402655,"perigee_km":681.87110915217,"apogee_km":683.40470946247,"semimajor_km":7060.7749093073,"source":"CELESTRAK","updated_at":"2026-09-20T09:00:14.364248Z"}}